This demonstration page uses our WeatherBlox Daily Observations layout. Learn more.

Left ArrowRight Arrow

41.86663, -103.66717

Hourly Observations for November 7, 2016

Temp ( °F °C ) Dew Point ( °F °C ) Humidity (%) Winds ( mph kmh ) Pressure ( in mb ) Visibility ( mi km ) Precip ( " mm )
12:53 am 00:53 Clear 38 3.3 30 -1.1 73 73 NW 6 9 30.03 1017 10 16 N/A
1:53 am 01:53 Clear 41 5 27 -2.8 57 57 WNW 9 15 30.05 1018 10 16 N/A
2:53 am 02:53 Clear 40 4.4 26 -3.3 58 58 NW 6 9 30.09 1019 10 16 N/A
3:53 am 03:53 Clear 42 5.6 24 -4.4 49 49 WNW 12 19 30.11 1020 10 16 N/A
4:53 am 04:53 Clear 40 4.4 24 -4.4 53 53 WNW 12 19 30.17 1022 10 16 N/A
5:53 am 05:53 Clear 38 3.3 23 -5 55 55 NW 9 15 30.20 1023 10 16 N/A
6:53 am 06:53 Sunny 36 2.2 24 -4.4 62 62 WNW 8 13 30.27 1025 10 16 N/A
7:53 am 07:53 Sunny 45 7.2 25 -3.9 46 46 W 5 7 30.30 1026 10 16 N/A
8:53 am 08:53 Sunny 52 11.1 27 -2.8 38 38 W 7 11 30.33 1027 10 16 N/A
9:53 am 09:53 Sunny 56 13.3 27 -2.8 33 33 W 5 7 30.32 1027 10 16 N/A
10:53 am 10:53 Sunny 60 15.6 28 -2.2 30 30 VRB 3 6 30.33 1027 10 16 N/A
11:53 am 11:53 Sunny 64 17.8 25 -3.9 23 23 VRB 5 7 30.30 1026 10 16 N/A
12:53 pm 12:53 Sunny 67 19.4 23 -5 19 19 N 7 11 30.28 1026 10 16 N/A
1:53 pm 13:53 Sunny 67 19.4 23 -5 19 19 VRB 3 6 30.27 1025 10 16 N/A
2:53 pm 14:53 Sunny 65 18.3 25 -3.9 22 22 WSW 8 13 30.28 1026 10 16 N/A
3:53 pm 15:53 Sunny 64 17.8 24 -4.4 22 22 SSW 3 6 30.30 1026 10 16 N/A
4:53 pm 16:53 Clear 52 11.1 26 -3.3 37 37 E 6 9 30.36 1028 10 16 N/A
5:53 pm 17:53 Clear 47 8.3 25 -3.9 42 42 NE 9 15 30.39 1029 10 16 N/A
6:53 pm 18:53 Clear 45 7.2 24 -4.4 44 44 N N/A 30.43 1031 10 16 N/A
7:53 pm 19:53 Clear 39 3.9 24 -4.4 55 55 N 3 6 30.44 1031 10 16 N/A
8:53 pm 20:53 Clear 39 3.9 25 -3.9 57 57 NE 3 6 30.43 1031 10 16 N/A
9:53 pm 21:53 Clear 36 2.2 24 -4.4 62 62 NE 8 13 30.45 1031 10 16 N/A
10:53 pm 22:53 Clear 36 2.2 26 -3.3 67 67 NE 8 13 30.45 1031 10 16 N/A
11:53 pm 23:53 Clear 34 1.1 24 -4.4 67 67 N N/A 30.46 1031 10 16 N/A

Powered by AerisWeather